Overview Statistics Trail Chart Weather Telemetry Raw packets
 

This is the latest recevied weather packets stored in our database for station/object W5GMO. If no packets are shown the sender has not sent any weather packets the latest 10 day(s).

<< 74 75 76 77 78 79 80 >>
Time Temp. Humidity Pressure Rain* Wind** Luminosity Snow
1788106907 28.89° C 1% 1021.9 hPa 0 mm - 687 W/m² -
1788106602 28.33° C 1% 1022 hPa 0 mm - 411 W/m² -
1788106297 28.33° C 1% 1021.9 hPa 0 mm - 400 W/m² -
1788105994 28.33° C 1% 1022 hPa 0 mm - 598 W/m² -
1788105693 28.33° C 1% 1022.3 hPa 0 mm - 667 W/m² -
1788105390 28.33° C 1% 1022.2 hPa 0 mm - 360 W/m² -
1788105085 27.78° C 1% 1022.2 hPa 0 mm - 430 W/m² -
1788104780 27.78° C 1% 1022.2 hPa 0 mm - 608 W/m² -
1788104477 28.33° C 1% 1022.1 hPa 0 mm - 545 W/m² -
1788104173 28.33° C 1% 1022.1 hPa 0 mm - 788 W/m² -
1788103873 28.33° C 1% 1022.1 hPa 0 mm - 683 W/m² -
1788103572 27.78° C 1% 1022.1 hPa 0 mm - 816 W/m² -
1788103271 27.78° C 1% 1022.3 hPa 0 mm - 667 W/m² -
1788102966 27.78° C 1% 1022.2 hPa 0 mm - 300 W/m² -
1788102661 27.22° C 1% 1022.1 hPa 0 mm - 726 W/m² -
1788102360 26.67° C 1% 1022.2 hPa 0 mm - 573 W/m² -
1788102055 26.11° C 1% 1022.2 hPa 0 mm - 447 W/m² -
1788101755 26.11° C 1% 1022.4 hPa 0 mm - 334 W/m² -
1788101450 26.11° C 1% 1022.1 hPa 0 mm - 286 W/m² -
1788101146 25.56° C 1% 1022.4 hPa 0 mm - 372 W/m² -
1788100842 25.56° C 1% 1022.5 hPa 0 mm - 300 W/m² -
1788100537 25.56° C 1% 1022.2 hPa 0 mm - 279 W/m² -
1788100235 25° C 1% 1022.2 hPa 0 mm - 226 W/m² -
1788099931 25° C 1% 1022.2 hPa 0 mm - 271 W/m² -
1788099626 25° C 1% 1022.2 hPa 0 mm - 202 W/m² -

* Rain latest hour (hover to see other rain measurements)
** Current wind speed in m/s (hover to see current wind gust speed)